This demonstration page uses our WeatherBlox Daily Observations layout. Learn more.

Left ArrowRight Arrow

47.50024, -111.30081

Hourly Observations for May 23, 2015

Temp ( °F °C ) Dew Point ( °F °C ) Humidity (%) Winds ( mph kmh ) Pressure ( in mb ) Visibility ( mi km ) Precip ( " mm )
12:16 am 00:16 Mostly Cloudy 55 12.8 41 5 59 59 ENE 17 28 29.88 1012 10 16 0.00 0.00
12:53 am 00:53 Cloudy 55 12.8 42 5.6 62 62 E 18 30 29.94 1014 10 16 0.00 0.00
1:53 am 01:53 Mostly Clear 54 12.2 43 6.1 67 67 E 10 17 29.94 1014 10 16 0.00 0.00
2:53 am 02:53 Clear 52 11.1 43 6.1 72 72 E 8 13 29.94 1014 10 16 0.00 0.00
3:53 am 03:53 Mostly Clear 50 10 43 6.1 77 77 ENE 8 13 29.96 1015 10 16 0.00 0.00
4:53 am 04:53 Cloudy 49 9.4 44 6.7 83 83 NW 3 6 29.98 1015 10 16 0.00 0.00
5:53 am 05:53 Cloudy 48 8.9 43 6.1 83 83 NNW 6 9 30.00 1016 10 16 0.00 0.00
6:49 am 06:49 Cloudy 50 10 45 7 82 82 NE 8 13 30.03 1017 10 16 0.00 0.00
6:53 am 06:53 Cloudy 50 10 46 7.8 86 86 ENE 8 13 30.03 1017 10 16 0.00 0.00
7:53 am 07:53 Cloudy with Rain 50 10 48 8.9 93 93 ENE 7 11 30.04 1017 5 8 0.01 0.25
8:53 am 08:53 Cloudy with Rain 49 9.4 48 8.9 97 97 Calm 30.07 1018 4 6 0.18 4.57
9:06 am 09:06 Cloudy with Light Rain 50 10 48 9 94 94 NNW 6 9 30.06 1018 1 2 0.00 0.00
9:37 am 09:37 Cloudy with Light Rain 49 9.4 48 8.9 97 97 NW 6 9 30.09 1019 3 4 0.10 2.54
9:53 am 09:53 Cloudy with Light Rain 49 9.4 48 8.9 97 97 NW 6 9 30.09 1019 3 4 0.13 3.30
10:03 am 10:03 Cloudy with Light Rain 50 10 48 9 94 94 NW 5 7 30.06 1018 3 5 0.00 0.00
10:15 am 10:15 Cloudy with Light Rain 50 10 49 9.4 96 96 NNW 6 9 30.06 1018 3 5 0.00 0.03
10:24 am 10:24 Cloudy with Light Rain 50 10 48 9 94 94 NW 6 9 30.06 1018 3 5 0.00 0.00
10:53 am 10:53 Cloudy with Rain 50 10 49 9.4 96 96 NW 6 9 30.09 1019 3 4 0.02 0.51
11:03 am 11:03 Cloudy with Light Rain 50 10 48 9 94 94 NNW 6 9 30.06 1018 3 5 0.00 0.00
11:10 am 11:10 Cloudy with Light Rain 50 10 49 9.4 96 96 NNW 5 7 30.06 1018 3 5 0.04 1.02
11:24 am 11:24 Cloudy with Light Rain 52 11 50 10 94 94 WNW 5 7 30.06 1018 2 3 0.00 0.00
11:36 am 11:36 Cloudy with Light Rain 52 11 50 10 94 94 NW 7 11 30.06 1018 7 11 0.00 0.00
11:53 am 11:53 Cloudy 53 11.7 51 10.6 93 93 NNW 7 11 30.08 1019 10 16 0.06 1.52
12:22 pm 12:22 Cloudy 55 13 52 11 88 88 NW 9 15 30.03 1017 10 16 0.00 0.00
12:53 pm 12:53 Cloudy 56 13.3 51 10.6 84 84 NW 12 19 30.07 1018 10 16 0.00 0.00
1:17 pm 13:17 Mostly Cloudy 58 14.4 52 11.1 81 81 WNW 9 15 29.97 1015 10 16 0.00 0.00
1:53 pm 13:53 Cloudy 60 15.6 50 10 70 70 VRB 5 7 30.04 1017 10 16 0.00 0.00
2:53 pm 14:53 Cloudy 56 13.3 48 8.9 75 75 ESE 17 28 30.08 1019 10 16 0.00 0.00
3:53 pm 15:53 Cloudy with Light Rain 54 12.2 49 9.4 83 83 SSE 6 9 30.10 1019 10 16 0.00 0.03
4:53 pm 16:53 Cloudy 53 11.7 49 9.4 86 86 SW 7 11 30.10 1019 10 16 0.00 0.03
5:53 pm 17:53 Cloudy 54 12.2 48 8.9 80 80 SW 7 11 30.11 1020 10 16 0.00 0.03
6:53 pm 18:53 Cloudy 54 12.2 48 8.9 80 80 W 7 11 30.11 1020 10 16 0.00 0.00
7:53 pm 19:53 Cloudy 53 11.7 48 8.9 83 83 WSW 6 9 30.10 1019 10 16 0.00 0.00
8:53 pm 20:53 Cloudy 52 11.1 49 9.4 89 89 Calm 30.11 1020 10 16 0.00 0.00
9:53 pm 21:53 Cloudy 52 11.1 49 9.4 89 89 N 5 7 30.12 1020 10 16 0.00 0.00
10:53 pm 22:53 Cloudy 52 11.1 50 10 93 93 Calm 30.13 1020 10 16 0.00 0.03
11:53 pm 23:53 Cloudy 50 10 47 8.3 89 89 SSW 3 6 30.12 1020 10 16 0.00 0.00

Powered by AerisWeather